Wind_Speed
50 48 45 41 38 38 38 39 39 39 38 38 38 37 38 38 38 37 35 32 33 35 37 39 40 41 42 43 43 42 42 44 46 47 48 46 45 44 43 43 43 41 39 37 37 38 39 42 43 44 45 44 44 43 43 42 41 40 39 38 36 35 34 33 32 31 29 29 29 28 26 25 25 24
49 47 44 40 37 37 38 39 38 38 38 39 39 39 38 39 39 39 38 34 32 35 37 38 40 42 42 42 43 43 42 42 45 47 48 47 45 44 43 44 44 43 41 39 39 39 39 40 41 43 45 45 45 44 43 43 42 41 41 40 39 38 37 35 34 33 31 31 30 29 28 27 26 25
47 45 42 39 36 37 37 37 37 37 37 38 39 39 39 39 40 40 40 37 34 35 37 37 39 41 42 42 42 42 42 42 44 47 48 47 46 45 43 44 46 45 42 40 40 40 39 39 39 40 43 46 46 44 44 44 44 43 43 42 42 41 39 38 36 35 34 33 32 31 30 29 28 27
46 43 40 37 36 36 36 36 37 37 38 38 39 39 39 40 40 40 41 39 36 36 38 38 39 41 42 43 42 41 41 42 44 45 46 46 48 48 46 45 47 46 43 41 40 40 39 38 37 38 41 44 46 46 45 44 45 45 45 44 43 43 41 40 38 37 36 35 34 33 32 31 30 29
44 41 39 36 35 34 34 36 38 37 37 38 39 40 39 40 40 40 41 41 38 37 38 39 39 41 42 42 42 42 41 42 44 44 45 46 48 50 48 45 47 49 46 42 41 41 40 39 37 37 39 42 44 46 46 45 45 45 46 46 45 44 43 42 40 39 38 37 35 34 34 33 32 31
40 38 37 35 33 33 35 37 38 36 36 37 38 39 39 39 40 41 40 40 39 38 39 39 39 40 43 42 42 43 42 42 44 44 45 46 47 49 48 45 47 49 49 46 43 42 41 40 38 38 38 40 42 44 45 45 45 45 45 46 46 45 44 43 42 41 39 38 37 36 35 35 33 32
37 36 35 34 34 34 36 37 37 35 34 35 37 38 38 39 40 41 41 40 39 38 38 39 39 40 42 42 42 43 43 43 43 44 44 46 47 48 46 45 46 48 49 49 46 43 42 42 40 39 39 39 39 41 43 44 45 45 45 45 46 46 45 44 44 43 42 40 39 37 37 36 35 34
35 36 36 35 34 34 34 35 35 34 33 34 35 36 37 38 38 40 42 41 39 37 38 39 39 40 40 41 42 43 44 44 44 43 44 46 48 48 46 45 45 47 48 49 48 44 42 43 42 41 40 39 39 39 40 42 44 45 45 44 45 46 46 45 45 44 43 42 40 39 38 37 36 35
35 36 36 35 34 33 33 33 34 33 32 33 33 34 35 37 37 38 41 42 40 38 37 38 38 40 40 40 41 43 44 45 45 44 44 45 47 49 48 45 45 47 48 49 48 44 42 43 43 42 40 39 39 39 39 40 41 42 44 44 44 45 46 46 45 45 44 44 42 41 39 38 37 36
36 35 35 35 34 34 33 33 33 32 32 32 32 33 35 36 36 36 38 41 40 38 38 38 37 39 41 40 40 42 44 45 45 44 44 45 47 49 49 46 45 47 48 48 48 45 44 45 45 43 41 39 39 40 39 38 39 40 42 44 44 44 45 46 46 45 45 45 44 42 40 39 38 37
35 34 34 33 34 34 34 34 33 32 31 32 33 34 35 35 35 35 35 38 39 38 38 39 38 38 41 41 40 42 43 44 45 45 45 45 46 47 48 48 46 48 49 48 48 45 42 44 46 43 41 39 39 39 39 38 38 39 40 42 43 43 43 44 46 46 45 45 44 44 42 41 40 39
33 32 32 32 33 34 34 34 34 33 32 32 33 35 36 36 36 35 34 35 37 37 37 40 40 39 40 42 41 42 43 44 45 46 45 45 44 45 46 47 47 49 50 49 50 47 42 42 45 43 40 39 38 39 39 38 36 36 38 39 41 42 42 43 44 46 46 44 44 44 43 42 41 40
32 31 31 31 32 33 33 33 34 33 33 33 34 36 37 38 38 37 35 35 36 36 36 38 40 40 41 42 42 42 43 44 45 46 46 45 45 45 46 47 48 50 50 49 49 49 45 43 44 43 40 38 38 38 38 37 35 35 36 38 40 41 41 42 43 45 45 44 44 43 43 43 42 42
31 31 31 31 31 32 32 32 33 33 33 33 34 36 38 39 39 38 37 35 34 35 35 36 39 42 42 42 42 42 43 45 45 46 46 45 45 45 47 48 49 50 50 48 46 45 44 44 44 43 41 39 38 38 37 36 35 35 36 38 40 41 41 41 42 43 44 44 43 43 42 43 43 42
30 30 31 30 31 31 32 32 32 32 32 33 34 36 38 40 41 41 39 36 32 32 34 35 37 41 42 42 42 41 42 44 45 46 47 45 44 45 47 48 49 49 48 47 44 42 43 43 43 43 43 41 39 37 36 36 35 35 36 38 39 40 41 41 41 42 43 42 42 42 42 42 42 41
29 30 30 31 31 32 32 32 32 31 32 33 34 36 38 40 42 42 41 38 31 28 32 34 36 39 41 41 40 41 42 44 46 47 47 46 44 45 47 48 48 48 49 49 45 42 43 43 43 43 43 42 40 37 36 37 36 36 36 37 39 40 40 40 40 40 41 41 41 41 41 41 41 41
29 30 30 31 32 33 33 32 32 31 31 32 34 36 37 39 41 42 41 40 35 29 29 33 36 38 40 40 39 40 42 43 45 47 48 47 45 45 46 46 47 49 51 52 47 43 43 43 42 42 42 42 41 38 37 38 37 36 36 37 38 40 40 40 39 39 39 39 40 40 41 41 41 40
31 30 30 31 32 33 33 33 32 31 31 31 33 35 37 38 39 38 38 39 38 33 30 33 36 37 39 40 39 40 41 43 45 47 49 48 47 47 46 46 47 50 52 53 50 44 42 42 41 40 41 42 41 39 38 39 39 38 37 37 38 39 39 39 39 39 39 39 39 39 39 39 39 39
32 32 31 31 31 32 33 32 32 31 31 31 32 33 34 35 34 33 34 37 39 36 33 32 35 37 38 39 39 40 41 43 45 48 50 50 48 48 48 47 47 50 52 53 50 44 41 42 41 38 39 42 42 40 39 39 39 39 38 38 38 38 38 38 38 39 39 39 38 38 38 38 38 38
32 33 32 31 31 32 32 32 31 31 31 31 31 32 32 32 32 32 33 36 39 38 35 31 33 36 36 36 37 39 41 43 45 48 51 51 49 48 48 46 46 48 51 52 50 45 41 42 40 38 40 43 42 41 39 39 39 39 39 39 38 37 37 37 37 38 38 37 37 37 37 37 37 37
32 33 33 31 31 31 31 31 31 32 32 32 32 31 31 31 33 33 32 33 36 38 37 33 32 34 34 33 35 39 41 43 46 49 51 50 49 48 47 45 44 46 49 51 50 45 42 42 39 38 41 43 42 41 40 39 40 40 40 40 39 38 37 36 37 37 37 37 36 36 37 37 37 36
32 33 33 32 32 32 32 31 32 32 32 32 33 32 31 33 34 33 32 31 31 34 36 35 32 32 31 31 34 38 41 43 45 49 51 50 49 48 45 43 44 46 48 50 49 45 42 41 39 38 41 43 41 39 39 39 40 40 40 41 40 39 38 36 36 36 36 36 36 36 37 37 36 35
31 32 34 34 33 33 32 31 32 32 31 33 33 32 31 33 34 33 32 32 30 30 32 34 32 30 31 32 34 37 40 42 45 49 51 50 49 47 44 42 44 47 48 47 47 44 41 41 40 39 41 41 39 38 39 39 40 41 41 41 41 40 38 36 35 35 35 35 35 35 35 35 35 34
30 32 34 34 34 33 32 31 32 31 30 32 33 32 31 32 32 32 32 32 31 28 29 31 30 28 29 32 34 36 38 40 43 48 50 49 49 47 43 41 44 47 46 46 46 43 41 41 40 39 41 40 38 39 41 40 40 42 42 42 41 40 38 36 35 34 34 34 34 34 34 34 34 34
29 31 33 34 34 33 31 31 32 30 30 31 32 32 31 31 32 32 32 31 29 27 27 29 29 27 27 30 33 36 37 38 42 46 48 48 49 46 41 41 44 45 45 45 44 41 41 43 42 40 41 41 38 39 40 41 41 42 43 43 42 40 38 36 35 33 33 34 34 34 34 34 34 33
30 31 32 33 33 32 31 31 31 30 30 30 31 31 31 31 32 32 32 31 28 25 26 27 27 26 25 28 32 35 36 37 40 44 46 48 49 45 41 41 43 43 43 44 43 40 41 43 44 42 41 40 40 39 39 39 41 42 43 43 42 41 39 37 35 33 33 33 33 33 33 33 33 33
31 31 31 31 32 32 31 31 30 29 29 30 30 30 30 30 32 32 32 31 27 24 24 25 26 25 23 24 28 31 34 36 38 42 45 47 47 44 40 41 42 42 43 45 44 41 41 43 44 43 41 41 41 40 38 38 40 42 43 43 43 43 41 38 36 35 34 33 33 33 33 32 32 32
30 30 30 30 31 31 31 30 29 28 28 28 28 28 28 28 30 31 31 31 28 23 22 22 24 24 21 22 25 27 30 33 36 40 43 45 44 42 41 41 41 41 43 45 44 42 41 42 43 43 43 42 41 40 40 39 39 40 42 43 44 43 42 39 37 36 35 34 33 33 33 33 33 33
30 29 29 30 30 30 30 29 28 27 27 27 27 27 27 27 28 30 31 31 28 24 20 19 19 21 21 20 22 24 27 30 33 36 41 42 42 42 42 42 41 40 40 41 42 42 41 42 43 44 44 42 41 40 41 40 38 38 40 42 43 42 41 39 39 38 37 36 34 33 33 34 34 34
30 29 30 30 30 29 29 28 27 27 27 26 26 26 26 26 27 28 29 30 28 23 19 16 13 16 20 20 21 23 25 27 31 34 38 41 42 43 44 44 42 39 38 38 39 41 41 42 42 43 43 42 40 41 42 41 39 38 39 40 41 41 40 40 40 39 39 37 36 35 34 34 34 34
30 29 30 30 29 28 27 27 26 26 26 25 25 25 24 24 25 26 27 28 28 24 20 16 12 10 16 20 21 22 24 25 29 33 36 39 42 43 45 46 44 42 40 40 39 40 41 41 41 41 41 41 41 42 43 41 39 38 39 38 39 39 39 40 40 40 40 40 39 37 35 34 33 33
30 30 30 30 28 27 26 25 25 25 25 24 24 23 22 21 22 24 26 28 29 28 23 19 15 8 9 17 20 21 23 24 27 31 34 37 40 42 44 45 44 43 42 42 41 41 41 40 40 39 39 40 40 42 43 41 38 37 38 38 37 38 40 40 40 40 40 40 40 38 37 34 33 34
29 29 30 29 27 25 25 24 25 24 23 22 22 21 19 19 20 22 24 26 28 29 27 22 16 10 2 11 17 20 23 25 26 29 32 35 37 40 42 42 42 42 42 41 41 41 40 39 39 39 39 39 39 41 42 40 37 36 37 37 37 38 39 39 39 39 40 39 39 39 38 36 35 35
29 29 28 27 25 24 24 24 24 24 22 21 20 19 17 17 18 20 22 24 26 28 30 26 19 13 6 3 10 14 20 25 26 27 30 32 35 37 39 40 40 41 41 40 41 41 40 39 40 41 40 40 41 41 41 41 39 38 37 36 35 36 38 39 38 38 39 40 39 39 39 38 37 36
29 27 26 25 24 24 23 23 23 23 22 20 18 17 16 16 17 18 20 22 24 26 29 29 24 18 12 4 5 11 17 23 26 27 28 30 33 35 36 37 39 40 38 37 37 38 38 39 40 40 40 41 42 41 42 43 43 41 37 34 34 36 38 39 39 38 39 40 40 39 38 39 40 39
29 27 25 24 24 24 24 23 22 22 21 19 17 17 16 16 16 17 18 20 22 24 26 28 28 24 18 11 3 7 14 18 23 26 27 29 31 34 34 35 37 37 37 36 36 35 35 37 39 39 40 41 42 42 42 44 45 44 41 38 36 38 39 40 39 38 38 39 39 39 38 39 41 41
29 27 24 23 24 24 24 24 22 21 21 20 17 16 16 16 16 16 17 18 20 21 23 26 28 28 25 19 11 3 9 14 18 23 27 28 30 33 34 35 35 35 35 37 37 36 35 36 37 38 39 39 41 42 42 42 44 45 43 41 39 39 40 41 39 38 37 37 37 37 37 38 40 42
28 27 25 24 24 24 25 24 23 21 20 20 18 16 16 17 16 15 15 16 18 19 21 23 25 27 27 25 20 11 2 8 14 19 24 27 29 32 35 36 36 36 37 37 37 37 36 36 36 36 37 37 38 40 40 41 42 43 43 42 40 40 41 42 41 40 40 39 37 36 37 38 39 41
28 28 27 26 24 24 24 24 22 20 20 20 19 17 17 16 16 15 14 14 16 17 19 20 22 23 25 26 24 18 10 2 9 16 22 25 26 29 34 37 37 37 38 39 38 38 37 35 36 37 38 38 39 39 39 41 42 42 43 43 42 41 41 42 42 43 43 41 39 37 37 38 39 40
28 28 28 26 25 25 24 23 22 20 20 19 19 19 17 16 16 15 14 14 14 15 16 18 19 21 22 23 24 23 17 9 2 10 19 25 26 26 30 37 40 40 40 39 38 38 38 38 39 40 40 40 41 40 39 40 42 42 42 43 42 41 41 41 41 42 42 42 41 39 39 40 41 42
26 27 27 25 25 25 24 23 22 21 20 20 20 19 19 17 16 15 15 14 13 14 15 16 17 19 20 21 22 23 21 17 9 1 9 20 27 28 28 33 38 41 42 41 40 40 40 40 41 42 42 42 43 42 41 40 40 41 43 43 42 42 42 42 41 41 41 41 40 40 40 40 41 41
24 25 25 24 24 24 23 23 22 21 20 20 20 20 19 18 16 16 15 15 14 13 14 14 15 16 18 18 19 20 21 20 17 11 4 6 18 27 29 30 32 36 39 41 42 44 45 46 46 46 46 46 45 43 42 40 40 40 41 41 41 41 42 41 42 42 41 39 38 39 40 41 41 40
21 22 23 22 22 22 22 22 21 21 20 20 20 20 19 18 17 17 16 16 15 14 14 14 14 14 15 16 17 17 18 19 19 17 13 7 2 12 22 28 29 29 31 34 37 40 46 51 52 50 47 47 46 44 42 42 41 40 40 39 39 39 39 39 40 41 41 40 40 41 42 41 41 42
20 20 21 21 20 20 20 20 20 21 21 21 20 20 19 18 18 18 18 17 17 16 15 14 14 14 14 15 16 16 16 17 17 18 17 15 10 3 6 16 21 22 22 24 28 31 36 44 49 47 45 44 45 44 44 43 42 41 41 40 39 39 39 39 40 41 42 43 42 43 44 43 41 41
21 21 21 21 20 20 20 20 20 20 21 21 21 20 20 19 19 19 19 19 18 18 17 16 16 15 15 15 14 15 15 16 16 16 17 17 16 12 7 3 9 12 13 16 21 25 28 32 36 37 38 38 39 41 42 41 40 40 40 41 41 41 40 40 41 43 47 47 44 42 43 44 42 40
Wind_Direction
315 313 311 306 299 297 297 295 292 288 286 284 281 277 272 267 262 259 258 260 262 261 257 253 253 255 252 247 245 243 241 240 240 237 236 236 234 235 237 237 236 236 235 235 234 234 234 233 231 231 232 233 232 231 230 229 229 229 230 231 232 233 235 236 237 237 238 239 241 243 243 244 244 244
314 313 310 305 299 298 297 295 291 288 285 284 281 278 274 270 266 262 256 254 258 261 260 257 254 254 254 250 246 245 242 241 240 238 236 235 235 235 236 236 235 235 236 238 238 234 233 233 231 231 232 233 233 232 231 231 230 230 230 231 232 233 234 236 237 238 239 239 241 242 243 244 245 245
314 312 308 303 300 299 297 293 289 287 285 284 282 280 278 273 270 266 261 254 254 258 259 258 257 255 253 252 249 246 244 243 240 237 235 235 234 234 235 236 235 235 236 239 239 236 234 232 231 231 232 233 233 232 232 231 231 231 231 232 232 232 233 235 237 238 239 240 241 242 243 245 247 247
313 310 306 304 304 301 296 291 289 287 286 284 283 281 280 278 273 269 265 259 256 257 257 255 257 257 254 252 251 248 245 244 242 238 235 234 233 234 236 236 235 234 234 236 237 235 234 233 231 231 232 232 232 232 232 232 231 231 232 232 233 233 233 234 236 238 240 241 241 242 244 245 247 249
313 310 307 306 306 301 294 290 287 287 286 285 284 283 282 281 278 274 269 263 258 258 258 254 253 256 256 253 252 249 245 243 243 240 236 233 232 233 236 236 233 232 232 233 234 234 232 232 231 231 233 233 233 232 232 232 232 232 232 232 233 234 234 234 235 237 239 241 242 243 245 246 247 249
315 313 310 307 303 298 292 289 287 288 288 286 284 284 283 283 282 279 274 268 261 258 258 255 252 253 255 254 252 250 246 244 243 241 237 234 231 232 235 235 232 231 231 232 234 233 232 232 231 231 232 233 233 233 233 233 233 233 233 233 233 234 234 235 236 237 239 241 243 244 245 247 248 250
316 315 313 308 303 297 293 291 290 291 289 287 285 285 285 284 284 283 279 273 266 260 257 256 253 251 253 254 252 249 246 244 244 242 238 234 231 231 234 235 233 232 232 234 235 235 234 233 232 232 233 233 234 235 235 234 234 234 235 235 235 234 235 235 236 237 238 240 242 244 246 247 249 251
316 314 312 309 305 300 296 293 293 292 290 288 287 286 286 285 284 284 282 278 271 263 258 256 255 252 251 252 251 248 244 241 242 243 239 234 232 231 232 233 232 231 232 233 235 236 235 233 232 233 233 234 235 236 236 236 236 236 236 236 236 235 235 235 236 237 238 239 241 243 245 247 249 251
315 314 311 309 306 302 299 296 294 293 291 289 289 288 288 287 285 284 283 280 275 268 261 257 255 254 252 250 249 248 244 239 238 240 238 235 233 231 231 232 230 230 231 231 232 236 237 233 232 232 232 233 235 237 237 237 237 237 237 237 237 237 236 235 236 237 238 239 241 242 244 247 249 251
314 313 310 308 305 303 300 298 296 295 292 291 291 291 290 290 288 286 283 281 277 272 266 261 256 253 252 250 248 247 245 239 236 236 236 235 234 232 231 231 229 228 229 230 231 236 236 232 230 231 231 231 233 235 237 238 238 238 237 237 237 238 237 236 236 237 238 239 240 242 244 246 248 251
312 311 309 307 305 303 301 300 298 297 296 295 295 295 294 294 292 288 284 281 278 273 268 265 258 251 251 251 248 247 246 240 236 235 234 232 234 234 232 230 229 227 227 227 228 231 232 230 229 229 230 231 232 234 236 238 239 239 238 237 237 238 238 237 236 237 237 238 240 241 243 245 248 251
309 308 307 306 304 302 301 300 300 299 299 299 298 298 298 298 296 293 289 285 281 274 268 265 259 250 249 251 249 246 246 242 235 233 233 229 230 233 232 228 227 226 225 225 225 228 232 233 230 229 230 231 232 233 234 236 239 241 241 239 237 237 238 238 238 237 237 238 240 241 243 245 248 250
307 306 306 305 304 303 302 301 301 302 303 302 301 301 301 301 300 298 295 289 284 277 268 263 259 251 248 250 250 245 244 243 237 232 231 228 226 229 229 226 225 225 224 224 224 228 234 235 232 231 231 231 232 232 233 234 236 239 240 237 235 236 237 238 238 237 237 238 240 241 243 245 247 250
306 305 305 305 305 305 304 304 304 305 307 306 305 305 305 304 304 302 298 293 286 278 270 263 257 253 249 249 250 246 242 242 238 232 230 227 224 225 226 223 223 224 223 223 224 227 231 231 231 232 232 231 232 232 231 232 234 237 238 236 234 234 236 237 237 236 235 236 239 241 243 245 247 250
305 304 305 305 306 306 305 305 306 308 309 310 309 309 309 308 306 304 300 295 287 277 271 265 257 253 252 250 250 247 242 241 239 232 229 227 223 223 223 220 220 222 222 221 223 225 227 228 229 230 230 231 231 230 229 230 232 234 236 235 234 234 236 237 237 235 235 236 238 241 243 245 248 250
305 304 305 305 306 306 305 306 308 310 312 313 313 313 312 310 308 306 303 299 290 277 271 268 259 252 251 250 248 246 241 240 238 232 227 226 224 222 221 218 218 220 221 220 221 224 226 227 227 227 228 230 230 229 228 228 230 233 235 235 234 234 235 236 236 235 235 236 238 241 243 245 247 249
306 305 304 305 305 305 306 307 310 313 316 317 317 315 314 313 311 309 306 303 296 284 275 271 263 253 248 247 246 244 240 238 237 232 226 225 224 222 221 218 216 218 220 220 220 222 226 228 227 225 225 228 230 229 227 227 229 231 234 234 234 233 234 236 236 236 236 237 238 240 243 245 247 249
306 305 303 304 305 305 306 308 311 315 318 319 318 316 316 316 314 311 307 303 298 291 284 277 266 254 247 244 242 240 237 236 235 230 225 223 222 221 220 218 216 217 220 219 218 220 225 227 227 224 224 226 229 229 228 227 228 230 232 233 233 232 233 234 236 237 237 237 238 240 241 243 245 247
306 305 303 303 305 305 306 308 311 315 317 317 317 316 317 319 319 315 309 303 299 295 290 282 268 254 243 239 237 236 235 234 232 229 224 221 220 220 219 218 216 217 219 219 218 219 223 226 226 224 223 224 227 230 229 227 227 229 231 232 232 232 233 234 236 237 237 237 238 239 240 242 243 244
304 303 302 302 304 305 307 309 312 313 314 314 315 316 317 321 323 319 313 308 304 299 295 287 270 254 240 233 233 235 235 234 231 227 223 220 220 220 219 218 218 219 219 219 218 218 221 225 225 224 224 224 226 228 228 227 227 228 230 231 231 231 232 234 236 237 237 237 238 238 239 240 241 242
302 301 301 301 302 304 307 309 310 311 312 314 315 315 316 319 322 321 317 314 309 303 299 292 275 257 242 231 230 234 236 235 231 225 221 219 220 220 219 218 219 220 219 219 219 219 220 224 225 223 224 225 225 226 227 226 227 228 229 230 230 230 231 233 236 236 236 236 237 237 238 238 238 240
300 300 301 301 302 303 307 309 309 310 313 313 313 314 316 319 322 321 318 317 314 305 299 294 280 263 247 235 232 235 236 235 231 224 218 218 219 219 218 218 219 218 217 218 220 220 221 224 224 223 223 224 225 227 227 226 227 228 229 229 229 230 231 233 235 236 236 235 235 236 236 236 237 238
299 300 301 301 302 303 307 308 307 310 313 312 311 314 319 321 322 321 318 318 315 306 298 294 283 266 250 241 237 236 237 236 230 223 218 216 217 216 217 219 219 215 215 217 220 221 221 223 224 222 222 223 225 226 227 226 227 229 228 228 229 230 232 234 236 237 236 234 234 234 234 235 235 236
301 301 300 301 301 304 307 307 307 310 312 310 310 315 321 322 322 322 321 320 317 310 303 298 287 268 250 243 240 237 236 235 229 222 217 214 214 214 216 219 217 214 213 216 220 220 219 221 224 222 220 220 222 225 226 226 226 228 229 228 228 230 232 234 236 236 235 234 233 232 233 233 234 234
302 300 299 300 300 303 307 307 307 310 311 309 310 315 320 322 323 324 325 323 321 316 310 304 292 273 251 241 240 238 237 236 229 220 215 212 211 212 215 217 215 213 214 216 219 219 217 219 222 223 221 219 221 225 226 226 226 228 230 230 230 230 233 235 236 236 236 235 234 233 233 233 233 233
301 298 298 299 300 304 307 307 308 310 311 310 311 315 320 323 324 326 328 328 325 321 314 306 296 281 257 241 238 238 238 236 228 219 211 209 210 212 214 215 213 212 214 217 219 218 217 217 220 223 222 221 222 225 226 227 229 230 231 232 232 233 234 235 235 236 236 236 235 234 233 233 233 233
299 298 298 299 302 305 307 306 308 310 310 310 311 315 320 324 325 328 331 331 328 324 317 308 297 285 264 243 238 238 236 234 227 216 209 206 208 211 213 212 210 210 213 218 219 218 217 216 217 220 221 221 222 224 223 226 230 232 232 233 233 233 234 234 234 235 235 234 234 234 234 234 234 234
297 298 299 301 303 305 306 305 306 308 308 309 310 313 319 324 327 330 332 332 330 327 323 314 299 286 268 245 238 238 235 231 225 215 207 205 206 208 208 207 206 208 214 219 221 220 217 216 217 219 220 221 221 223 223 223 228 232 233 233 233 234 235 235 235 236 235 233 233 234 234 235 235 235
298 298 300 303 304 304 304 303 303 305 307 308 309 312 318 325 330 333 334 334 333 332 332 323 303 286 270 247 237 238 234 227 222 215 207 204 205 206 205 202 202 206 212 218 222 221 217 215 216 218 219 219 219 221 223 224 226 229 232 233 234 234 234 234 236 236 234 234 234 233 234 235 235 235
297 298 300 303 303 302 301 300 301 303 307 309 309 311 319 326 332 335 337 338 339 339 340 338 317 286 268 249 235 236 234 226 220 215 209 206 206 206 204 202 202 205 211 217 222 222 219 216 216 218 219 219 218 219 222 223 225 228 230 232 234 235 235 234 235 235 234 235 235 234 234 235 236 237
295 296 300 302 301 301 300 299 299 302 306 309 309 312 319 327 332 338 342 343 345 348 349 353 348 303 267 252 239 234 232 227 221 216 211 209 208 208 208 209 209 210 213 217 220 222 222 219 218 219 220 220 219 219 221 223 225 228 230 232 233 235 235 234 234 235 234 234 234 235 236 237 238 238
293 295 299 301 300 300 300 299 299 301 305 308 309 312 319 326 333 341 347 349 352 355 357 359 2 347 272 251 245 237 230 225 222 218 213 211 211 212 212 213 214 215 217 219 221 223 223 222 221 222 222 222 221 220 221 222 224 229 231 231 230 232 234 233 233 234 234 234 235 236 237 237 238 239
291 293 297 299 299 300 301 299 299 301 304 307 308 310 316 326 334 342 349 353 355 358 1 2 5 11 298 240 243 239 229 222 220 218 216 214 214 214 214 214 215 217 218 220 222 223 223 223 224 224 225 224 223 222 222 223 224 228 231 230 228 229 231 232 233 234 235 237 237 237 235 235 238 240
288 290 292 295 299 301 301 300 299 300 304 306 306 307 313 323 332 339 347 353 355 359 3 4 6 16 39 203 228 230 223 219 219 219 218 217 216 215 215 214 214 216 217 220 222 223 222 221 223 224 226 226 225 223 222 222 223 226 229 230 229 229 230 231 232 233 234 236 237 237 235 235 237 239
284 285 288 292 297 299 301 301 300 301 304 304 302 304 308 317 326 333 342 350 355 358 2 4 6 14 32 63 200 212 210 212 217 219 219 218 217 216 215 215 216 217 218 220 223 224 223 222 223 223 225 227 227 226 224 223 224 228 232 234 233 231 230 230 231 232 234 235 236 238 239 238 237 237
279 281 283 288 293 296 298 300 300 300 302 301 298 298 303 311 320 328 336 346 353 357 359 2 5 10 22 39 85 199 202 204 211 216 217 218 218 217 216 216 217 219 220 221 222 223 224 225 226 226 226 228 229 229 228 228 228 230 233 235 234 233 231 231 231 232 235 237 238 239 240 239 237 236
275 277 280 285 290 292 293 296 298 298 299 298 294 292 297 305 315 324 331 339 348 353 356 360 3 7 13 24 39 109 196 202 205 209 214 216 216 216 217 217 217 219 221 221 221 221 223 225 227 228 229 231 233 233 232 231 231 232 232 232 232 232 231 231 230 231 234 237 239 239 240 241 240 239
274 275 278 282 286 288 288 290 293 294 295 296 293 289 291 299 308 317 326 333 340 347 353 356 0 4 7 13 23 40 118 199 203 206 213 218 217 215 215 216 217 219 221 221 220 220 222 224 226 229 230 231 233 234 232 231 231 231 230 230 230 230 232 233 233 234 235 237 239 241 242 243 243 243
276 278 280 281 283 284 285 285 287 291 292 293 292 289 288 293 300 309 318 327 332 340 347 351 355 360 4 7 13 23 38 113 196 204 210 216 217 216 216 219 220 220 220 221 221 221 221 223 226 229 230 231 233 233 232 231 231 231 230 231 231 232 234 236 237 238 238 239 240 243 243 243 244 245
277 278 280 280 281 283 284 283 284 288 290 290 290 289 287 288 294 301 309 317 325 332 339 345 349 353 358 3 6 11 19 31 129 200 209 212 211 209 209 214 219 221 220 219 219 219 218 220 224 228 230 231 232 233 232 231 231 231 231 232 233 233 235 237 238 238 239 240 242 244 246 246 246 247
275 275 276 278 280 281 282 282 283 285 287 288 288 287 286 287 290 296 302 309 317 325 331 336 342 347 351 357 1 3 6 10 20 77 202 211 213 210 202 197 200 206 211 214 217 218 217 217 220 225 228 230 230 230 230 230 229 230 231 232 232 233 235 237 237 236 237 239 241 244 245 247 247 248
272 273 275 276 278 279 279 280 281 282 284 285 285 285 285 287 290 294 299 303 309 315 321 327 333 339 343 348 354 357 359 359 2 9 22 207 215 219 216 205 194 193 198 204 209 213 216 218 221 222 225 229 231 230 229 229 228 229 231 231 231 233 235 235 235 234 233 235 238 241 242 244 246 249
270 270 273 274 275 276 277 278 280 281 282 282 282 283 285 288 291 293 296 298 302 306 312 317 323 329 334 338 344 348 351 353 354 354 356 2 225 216 222 221 216 211 207 205 204 203 206 211 215 216 218 224 229 231 231 230 229 230 230 230 229 229 231 232 232 232 232 233 236 237 238 239 241 245
275 271 271 273 274 275 277 278 279 280 281 280 281 283 285 287 290 292 293 295 298 302 305 309 314 320 324 327 333 337 340 344 347 347 346 347 352 343 223 222 225 227 224 218 213 207 202 203 207 209 212 217 222 224 227 228 227 226 227 227 226 224 225 229 231 232 231 232 234 235 237 238 238 239
281 276 273 274 275 276 277 279 279 279 280 280 281 282 284 285 288 290 291 294 296 298 302 305 307 310 314 317 320 325 329 332 336 339 340 340 341 344 341 264 227 227 223 215 213 213 209 207 209 213 215 217 217 218 221 225 226 226 227 226 225 223 224 227 228 225 221 219 220 223 228 232 234 234
Height
5815 5812 5809 5807 5806 5805 5803 5801 5799 5798 5797 5795 5795 5795 5795 5796 5798 5799 5801 5804 5804 5803 5803 5804 5804 5803 5805 5808 5811 5813 5816 5819 5820 5822 5825 5829 5832 5835 5837 5839 5841 5842 5844 5847 5850 5853 5855 5857 5858 5861 5864 5867 5869 5870 5872 5874 5876 5878 5880 5883 5885 5888 5890 5892 5894 5895 5897 5898 5899 5900 5902 5903 5903 5904
5809 5806 5803 5802 5801 5799 5798 5796 5794 5793 5791 5789 5788 5788 5788 5788 5790 5791 5794 5798 5799 5797 5796 5797 5798 5798 5798 5801 5804 5807 5811 5813 5815 5817 5819 5822 5826 5829 5831 5833 5836 5838 5840 5842 5845 5848 5850 5852 5853 5855 5858 5861 5864 5866 5867 5869 5871 5874 5876 5878 5880 5883 5885 5887 5890 5892 5893 5895 5896 5897 5898 5900 5901 5902
5804 5801 5798 5796 5795 5794 5792 5790 5789 5787 5786 5784 5782 5781 5781 5781 5783 5783 5786 5791 5793 5791 5791 5791 5791 5792 5792 5794 5797 5801 5804 5807 5808 5811 5814 5817 5819 5822 5824 5827 5830 5833 5836 5838 5841 5843 5846 5847 5848 5850 5853 5856 5859 5861 5862 5864 5867 5869 5871 5873 5875 5878 5880 5883 5885 5888 5889 5891 5892 5894 5895 5896 5898 5899
5799 5796 5793 5791 5789 5788 5786 5784 5783 5782 5780 5778 5777 5776 5776 5775 5776 5777 5778 5782 5786 5785 5784 5786 5786 5785 5786 5788 5790 5794 5798 5799 5801 5804 5808 5811 5813 5815 5818 5822 5825 5828 5831 5834 5836 5838 5841 5842 5843 5845 5848 5851 5853 5855 5857 5859 5861 5863 5866 5868 5870 5873 5875 5878 5881 5883 5885 5887 5888 5890 5891 5893 5894 5895
5794 5791 5788 5786 5785 5782 5780 5778 5777 5776 5775 5773 5772 5771 5770 5769 5769 5770 5771 5773 5777 5778 5777 5779 5780 5779 5779 5781 5784 5787 5790 5792 5794 5797 5801 5804 5807 5809 5813 5816 5819 5823 5826 5829 5831 5833 5835 5837 5838 5840 5843 5845 5848 5850 5852 5854 5856 5858 5860 5863 5865 5868 5871 5873 5876 5878 5881 5883 5884 5886 5888 5889 5890 5892
5789 5787 5784 5782 5780 5778 5775 5773 5772 5772 5770 5769 5767 5766 5765 5765 5764 5764 5764 5765 5769 5771 5771 5771 5773 5773 5772 5775 5777 5779 5783 5785 5787 5790 5794 5797 5800 5803 5806 5810 5813 5817 5820 5824 5826 5828 5830 5831 5833 5835 5838 5840 5843 5845 5847 5849 5851 5853 5855 5858 5860 5863 5866 5869 5871 5874 5876 5878 5880 5882 5884 5885 5887 5888
5784 5782 5780 5777 5776 5773 5771 5769 5768 5768 5767 5765 5764 5762 5761 5760 5759 5758 5758 5758 5760 5763 5764 5764 5766 5767 5766 5768 5771 5772 5775 5778 5779 5783 5788 5791 5794 5797 5800 5804 5807 5810 5814 5818 5821 5823 5825 5827 5828 5830 5833 5835 5838 5840 5842 5844 5846 5848 5850 5853 5855 5858 5861 5864 5866 5869 5871 5874 5876 5878 5879 5881 5883 5884
5780 5778 5775 5773 5771 5769 5767 5765 5764 5764 5763 5761 5759 5758 5757 5756 5755 5753 5752 5752 5753 5755 5757 5757 5758 5760 5760 5762 5764 5765 5768 5771 5772 5775 5780 5784 5788 5791 5794 5798 5802 5805 5808 5812 5815 5818 5820 5822 5824 5826 5828 5830 5833 5835 5836 5838 5841 5843 5845 5848 5850 5853 5856 5859 5862 5864 5867 5869 5871 5873 5875 5877 5879 5880
5776 5774 5771 5769 5767 5765 5763 5762 5761 5760 5759 5757 5755 5754 5752 5751 5750 5748 5746 5746 5747 5748 5750 5751 5751 5753 5754 5755 5757 5758 5760 5764 5766 5768 5773 5777 5781 5785 5788 5792 5796 5800 5803 5806 5810 5813 5815 5817 5820 5822 5824 5825 5827 5829 5831 5833 5836 5838 5840 5843 5845 5848 5851 5854 5857 5859 5862 5864 5866 5869 5871 5873 5874 5876
5772 5770 5767 5765 5763 5761 5760 5759 5758 5756 5754 5753 5751 5749 5747 5746 5745 5743 5741 5740 5740 5741 5743 5744 5745 5746 5747 5748 5751 5752 5753 5756 5759 5762 5766 5770 5774 5778 5782 5786 5791 5794 5797 5801 5804 5807 5809 5811 5814 5817 5818 5820 5822 5824 5826 5828 5830 5833 5835 5838 5840 5843 5846 5849 5852 5854 5857 5859 5862 5864 5866 5868 5870 5872
5768 5766 5764 5762 5760 5758 5756 5755 5753 5752 5750 5749 5747 5744 5742 5741 5739 5738 5736 5734 5734 5735 5736 5736 5738 5739 5740 5742 5744 5745 5746 5749 5753 5756 5759 5764 5767 5772 5776 5780 5784 5788 5791 5795 5798 5801 5803 5806 5808 5811 5813 5816 5818 5820 5822 5824 5826 5828 5830 5833 5835 5838 5841 5844 5846 5849 5852 5854 5857 5859 5861 5863 5865 5867
5765 5763 5761 5759 5757 5755 5753 5750 5748 5747 5746 5745 5742 5739 5737 5735 5733 5732 5730 5729 5728 5728 5729 5729 5730 5732 5734 5735 5737 5738 5739 5742 5747 5750 5752 5757 5761 5764 5768 5773 5777 5781 5784 5788 5791 5795 5798 5801 5803 5806 5808 5811 5814 5816 5817 5819 5822 5824 5826 5828 5831 5833 5836 5839 5841 5844 5846 5849 5852 5854 5857 5859 5861 5862
5761 5760 5758 5756 5753 5751 5749 5747 5744 5743 5741 5740 5738 5735 5732 5729 5727 5725 5724 5723 5721 5721 5722 5722 5722 5725 5727 5728 5729 5731 5732 5735 5740 5743 5745 5750 5755 5757 5761 5765 5770 5773 5777 5781 5785 5789 5792 5796 5798 5801 5804 5807 5809 5811 5813 5815 5817 5819 5820 5822 5825 5828 5831 5833 5835 5838 5841 5844 5847 5849 5851 5854 5856 5857
5758 5756 5754 5752 5750 5747 5745 5743 5741 5739 5737 5735 5733 5730 5727 5724 5722 5720 5718 5717 5715 5715 5715 5716 5716 5717 5719 5721 5722 5725 5727 5728 5732 5736 5739 5744 5748 5751 5755 5760 5763 5767 5771 5775 5780 5784 5787 5790 5792 5795 5799 5802 5803 5805 5808 5811 5812 5813 5815 5817 5819 5822 5825 5827 5830 5832 5835 5839 5842 5844 5846 5848 5850 5852
5755 5753 5751 5749 5746 5744 5742 5739 5737 5735 5734 5731 5729 5726 5722 5719 5716 5714 5712 5710 5710 5709 5708 5709 5710 5710 5712 5714 5716 5719 5721 5722 5725 5729 5733 5737 5742 5745 5749 5754 5758 5761 5765 5769 5774 5777 5780 5783 5786 5789 5793 5796 5798 5801 5804 5805 5806 5808 5810 5812 5814 5817 5820 5822 5825 5827 5830 5833 5836 5839 5841 5843 5845 5847
5752 5750 5747 5745 5743 5741 5738 5736 5734 5732 5730 5728 5725 5721 5718 5714 5711 5707 5704 5702 5702 5703 5703 5702 5703 5704 5706 5708 5710 5712 5714 5716 5718 5722 5726 5731 5735 5739 5743 5749 5753 5756 5758 5762 5767 5771 5774 5777 5780 5784 5787 5790 5792 5795 5798 5799 5801 5803 5805 5807 5810 5812 5815 5818 5820 5823 5825 5828 5831 5833 5835 5838 5840 5842
5749 5746 5744 5742 5739 5737 5735 5733 5731 5729 5727 5725 5721 5718 5714 5711 5706 5702 5698 5695 5694 5696 5697 5696 5696 5697 5699 5701 5703 5704 5706 5709 5711 5715 5720 5724 5728 5732 5737 5743 5747 5749 5751 5754 5760 5765 5768 5771 5775 5779 5782 5784 5787 5790 5792 5793 5795 5798 5800 5803 5805 5808 5810 5813 5815 5818 5820 5823 5825 5827 5830 5832 5834 5836
5745 5743 5741 5739 5736 5734 5731 5730 5728 5726 5724 5721 5718 5715 5711 5707 5702 5698 5694 5691 5688 5689 5690 5689 5689 5689 5691 5694 5696 5696 5699 5702 5705 5708 5712 5717 5721 5726 5730 5735 5739 5742 5744 5749 5754 5760 5764 5766 5769 5773 5777 5779 5781 5784 5786 5788 5790 5793 5795 5798 5800 5803 5805 5808 5810 5813 5815 5817 5820 5822 5824 5826 5829 5831
5741 5739 5737 5735 5733 5731 5728 5726 5725 5722 5720 5718 5715 5712 5708 5704 5700 5695 5692 5688 5685 5683 5683 5682 5681 5681 5683 5686 5688 5690 5692 5695 5698 5701 5705 5710 5714 5719 5723 5728 5733 5736 5740 5744 5749 5755 5760 5762 5765 5769 5772 5773 5775 5778 5781 5783 5786 5788 5791 5793 5795 5798 5800 5803 5805 5807 5810 5812 5814 5816 5819 5821 5823 5826
5737 5735 5733 5732 5730 5727 5725 5723 5721 5719 5716 5714 5712 5709 5705 5701 5697 5693 5689 5684 5681 5678 5677 5676 5675 5674 5677 5680 5683 5684 5685 5688 5691 5694 5698 5703 5708 5712 5717 5722 5727 5731 5735 5739 5744 5750 5755 5757 5760 5765 5766 5767 5770 5773 5776 5778 5781 5784 5786 5789 5791 5793 5796 5798 5800 5802 5805 5807 5809 5811 5813 5816 5818 5820
5733 5731 5729 5728 5726 5724 5722 5720 5717 5715 5713 5710 5708 5704 5701 5697 5694 5690 5687 5682 5678 5674 5672 5670 5669 5669 5672 5676 5678 5678 5680 5682 5684 5687 5692 5698 5702 5706 5711 5717 5722 5727 5731 5734 5739 5745 5749 5752 5756 5759 5760 5762 5765 5768 5771 5774 5776 5779 5782 5784 5786 5789 5791 5793 5796 5798 5800 5802 5804 5806 5808 5811 5813 5815
5729 5727 5725 5723 5722 5720 5719 5717 5714 5711 5709 5706 5703 5700 5697 5694 5690 5687 5683 5680 5676 5672 5668 5665 5664 5664 5667 5670 5672 5673 5674 5676 5678 5682 5688 5692 5695 5700 5706 5712 5717 5721 5725 5730 5734 5740 5745 5747 5750 5754 5755 5757 5761 5764 5766 5769 5771 5774 5777 5779 5782 5784 5786 5789 5791 5793 5795 5797 5799 5801 5803 5806 5808 5811
5726 5723 5721 5719 5718 5716 5715 5712 5710 5708 5706 5702 5699 5696 5693 5690 5687 5683 5679 5676 5673 5669 5665 5661 5659 5659 5662 5664 5666 5668 5669 5670 5672 5676 5682 5686 5690 5696 5702 5707 5711 5715 5721 5725 5729 5735 5740 5742 5745 5749 5750 5752 5756 5759 5761 5764 5766 5769 5772 5775 5777 5779 5782 5784 5787 5789 5791 5792 5794 5796 5799 5801 5804 5806
5722 5720 5717 5716 5714 5713 5711 5708 5706 5705 5702 5699 5695 5692 5690 5687 5684 5680 5676 5672 5668 5664 5660 5657 5654 5654 5656 5658 5660 5662 5663 5665 5667 5670 5676 5681 5686 5692 5697 5701 5706 5712 5717 5720 5723 5729 5734 5736 5739 5743 5745 5747 5751 5754 5756 5759 5761 5763 5766 5769 5772 5775 5778 5780 5783 5785 5787 5788 5790 5792 5794 5797 5799 5801
5719 5716 5714 5712 5711 5709 5707 5704 5702 5701 5699 5695 5692 5689 5686 5683 5680 5676 5672 5668 5664 5660 5656 5653 5650 5649 5650 5653 5655 5657 5658 5660 5661 5665 5671 5677 5681 5687 5692 5697 5701 5707 5712 5715 5718 5723 5728 5731 5734 5737 5739 5743 5746 5749 5751 5754 5756 5758 5761 5764 5767 5771 5774 5776 5779 5781 5783 5785 5786 5788 5790 5792 5795 5797
5715 5713 5711 5709 5707 5706 5703 5700 5698 5697 5695 5692 5689 5685 5682 5679 5676 5672 5669 5665 5661 5657 5653 5649 5646 5645 5645 5647 5650 5651 5653 5655 5657 5661 5667 5672 5677 5683 5688 5692 5697 5702 5707 5709 5712 5718 5722 5725 5729 5731 5735 5739 5742 5744 5747 5749 5752 5754 5757 5760 5764 5767 5769 5772 5774 5777 5779 5781 5783 5785 5786 5789 5791 5793
5711 5709 5708 5706 5704 5702 5700 5697 5695 5694 5691 5688 5686 5682 5679 5676 5673 5670 5666 5662 5658 5655 5650 5647 5643 5641 5641 5643 5645 5647 5649 5650 5653 5657 5663 5668 5673 5678 5684 5688 5692 5697 5700 5702 5706 5711 5716 5720 5723 5726 5730 5733 5736 5739 5742 5744 5747 5750 5752 5755 5758 5760 5763 5767 5770 5772 5774 5776 5778 5781 5783 5785 5787 5789
5707 5706 5704 5702 5700 5698 5696 5694 5693 5691 5688 5686 5683 5680 5677 5674 5671 5667 5664 5660 5656 5652 5648 5645 5641 5639 5638 5639 5641 5644 5646 5647 5650 5654 5660 5665 5670 5675 5679 5683 5688 5692 5694 5697 5701 5706 5711 5715 5718 5721 5724 5727 5731 5735 5737 5739 5742 5745 5747 5750 5752 5755 5758 5762 5765 5768 5770 5772 5774 5776 5779 5781 5783 5785
5704 5702 5700 5699 5697 5695 5693 5691 5690 5688 5685 5683 5680 5678 5675 5672 5669 5665 5662 5658 5654 5650 5646 5643 5639 5637 5636 5637 5639 5642 5643 5645 5648 5652 5657 5662 5666 5671 5675 5679 5683 5687 5691 5693 5697 5702 5706 5710 5713 5716 5718 5722 5726 5729 5731 5734 5737 5740 5741 5744 5747 5750 5753 5757 5760 5763 5765 5767 5770 5772 5774 5776 5778 5780
5700 5698 5697 5695 5693 5692 5690 5688 5687 5685 5682 5680 5678 5675 5673 5670 5667 5664 5660 5656 5652 5648 5644 5641 5638 5635 5634 5635 5638 5640 5642 5644 5647 5650 5654 5659 5663 5667 5671 5675 5679 5683 5687 5690 5693 5698 5702 5706 5709 5711 5714 5718 5721 5723 5725 5729 5732 5734 5735 5738 5742 5745 5749 5753 5755 5757 5760 5762 5764 5766 5768 5770 5773 5775
5695 5694 5693 5691 5690 5688 5686 5685 5683 5682 5680 5677 5675 5672 5670 5668 5665 5662 5659 5655 5650 5646 5642 5639 5636 5634 5633 5634 5636 5638 5640 5642 5645 5648 5652 5655 5659 5664 5668 5671 5675 5678 5682 5685 5689 5693 5697 5702 5705 5707 5710 5713 5717 5718 5720 5723 5727 5729 5731 5733 5737 5740 5744 5747 5750 5752 5754 5756 5758 5761 5763 5766 5768 5770
5691 5690 5689 5688 5686 5685 5683 5682 5680 5678 5677 5674 5672 5670 5668 5666 5664 5660 5657 5653 5649 5645 5641 5639 5636 5634 5632 5632 5633 5635 5637 5640 5643 5646 5649 5652 5656 5660 5663 5667 5671 5675 5678 5682 5685 5689 5692 5697 5700 5703 5706 5709 5712 5715 5717 5719 5722 5725 5727 5729 5732 5735 5737 5741 5744 5747 5748 5751 5753 5756 5759 5761 5763 5765
5687 5686 5685 5684 5683 5682 5680 5679 5677 5675 5674 5672 5670 5668 5666 5665 5662 5659 5656 5652 5649 5645 5642 5639 5636 5634 5631 5630 5631 5633 5635 5637 5640 5644 5647 5649 5652 5656 5660 5664 5667 5671 5674 5678 5682 5685 5688 5693 5696 5698 5701 5705 5708 5711 5713 5716 5718 5721 5722 5724 5727 5729 5732 5736 5739 5742 5744 5747 5749 5751 5753 5756 5758 5760
5683 5683 5682 5680 5679 5679 5677 5676 5674 5673 5671 5669 5668 5666 5665 5663 5661 5658 5655 5652 5649 5646 5642 5639 5637 5634 5631 5629 5630 5631 5633 5636 5639 5642 5644 5647 5650 5653 5657 5661 5663 5666 5669 5673 5677 5680 5684 5688 5691 5693 5696 5699 5702 5705 5708 5711 5714 5716 5718 5720 5723 5726 5728 5731 5734 5737 5740 5742 5744 5746 5748 5751 5754 5756
5679 5679 5678 5677 5676 5675 5674 5673 5671 5670 5669 5667 5666 5664 5663 5662 5660 5657 5655 5652 5649 5646 5643 5640 5637 5634 5631 5629 5629 5630 5632 5634 5637 5640 5643 5646 5649 5651 5654 5657 5659 5662 5665 5670 5673 5676 5680 5683 5686 5689 5691 5694 5697 5700 5703 5706 5709 5711 5713 5716 5719 5722 5725 5727 5730 5733 5735 5737 5739 5741 5744 5746 5749 5751
5675 5675 5675 5674 5673 5672 5671 5670 5669 5667 5666 5665 5664 5662 5661 5660 5658 5656 5654 5651 5648 5646 5643 5640 5637 5634 5632 5629 5628 5628 5630 5632 5634 5637 5640 5643 5646 5648 5651 5653 5656 5659 5663 5667 5670 5672 5675 5679 5682 5684 5687 5689 5692 5695 5698 5701 5704 5707 5709 5712 5715 5717 5720 5723 5726 5729 5731 5732 5735 5737 5739 5741 5743 5745
5670 5671 5671 5670 5670 5669 5668 5667 5666 5664 5663 5663 5662 5661 5659 5658 5657 5655 5653 5650 5648 5646 5643 5641 5638 5635 5632 5630 5628 5628 5629 5630 5632 5635 5637 5640 5642 5645 5647 5650 5653 5656 5659 5663 5666 5668 5671 5674 5677 5680 5682 5685 5687 5690 5694 5697 5699 5702 5705 5709 5711 5713 5715 5718 5722 5725 5727 5728 5730 5732 5734 5736 5737 5740
5666 5667 5667 5667 5666 5665 5665 5664 5663 5662 5661 5660 5659 5659 5657 5656 5655 5653 5651 5649 5647 5645 5643 5641 5638 5636 5634 5632 5630 5628 5628 5629 5631 5633 5635 5636 5638 5641 5645 5647 5650 5653 5655 5658 5661 5664 5666 5669 5673 5675 5678 5679 5682 5685 5689 5692 5694 5697 5700 5704 5706 5709 5711 5714 5717 5720 5722 5723 5725 5727 5729 5730 5731 5733
5662 5662 5663 5663 5663 5662 5661 5661 5660 5659 5658 5658 5657 5656 5655 5654 5653 5651 5650 5648 5646 5645 5643 5641 5639 5637 5635 5633 5631 5629 5629 5629 5630 5631 5633 5634 5636 5638 5641 5644 5647 5649 5651 5653 5656 5660 5663 5666 5669 5671 5673 5675 5677 5680 5683 5686 5688 5692 5695 5698 5701 5704 5707 5709 5711 5713 5715 5718 5720 5722 5723 5725 5726 5727
5658 5658 5658 5659 5659 5659 5658 5658 5657 5656 5655 5655 5654 5654 5653 5652 5651 5649 5648 5646 5645 5644 5642 5640 5639 5637 5635 5634 5632 5631 5629 5629 5629 5630 5631 5633 5634 5636 5638 5640 5642 5645 5648 5649 5652 5656 5660 5663 5665 5666 5668 5671 5673 5675 5678 5681 5684 5687 5690 5692 5695 5699 5701 5703 5705 5708 5710 5712 5714 5716 5718 5720 5721 5722
5654 5654 5655 5655 5655 5655 5655 5654 5654 5653 5653 5652 5651 5651 5650 5650 5648 5647 5646 5645 5644 5642 5641 5640 5638 5637 5635 5634 5633 5631 5630 5629 5629 5629 5630 5631 5632 5634 5635 5636 5637 5640 5643 5645 5648 5651 5654 5658 5660 5661 5663 5666 5668 5670 5673 5676 5678 5681 5683 5686 5690 5693 5695 5697 5700 5702 5704 5706 5709 5711 5713 5714 5715 5717
5651 5651 5651 5652 5652 5652 5651 5651 5650 5650 5650 5649 5649 5648 5648 5647 5646 5645 5644 5643 5642 5641 5640 5639 5638 5636 5635 5634 5633 5632 5631 5630 5629 5629 5629 5629 5630 5631 5633 5633 5634 5635 5637 5640 5643 5646 5648 5651 5654 5656 5658 5660 5662 5664 5667 5670 5673 5675 5678 5681 5685 5688 5690 5692 5694 5696 5699 5701 5704 5707 5707 5708 5710 5711
5647 5647 5648 5648 5649 5648 5648 5648 5647 5647 5647 5647 5646 5646 5645 5644 5644 5643 5642 5641 5640 5639 5638 5637 5636 5635 5634 5633 5632 5632 5631 5630 5629 5629 5628 5628 5628 5629 5630 5630 5631 5632 5633 5635 5638 5640 5643 5645 5648 5650 5653 5655 5657 5659 5662 5665 5668 5670 5673 5676 5679 5683 5685 5687 5689 5691 5694 5697 5700 5702 5703 5704 5705 5706
5644 5644 5645 5645 5645 5645 5645 5645 5644 5644 5644 5643 5643 5643 5642 5642 5641 5640 5639 5639 5638 5637 5636 5635 5635 5634 5633 5633 5632 5631 5630 5630 5630 5629 5628 5628 5628 5628 5628 5628 5628 5629 5630 5631 5633 5635 5636 5638 5641 5645 5648 5650 5652 5654 5656 5659 5662 5665 5667 5670 5674 5677 5680 5682 5684 5686 5688 5691 5694 5695 5696 5698 5700 5701
5641 5641 5642 5642 5642 5642 5642 5642 5641 5641 5641 5640 5640 5640 5640 5639 5638 5638 5637 5636 5635 5634 5634 5633 5633 5632 5632 5632 5631 5630 5630 5629 5629 5628 5628 5628 5627 5627 5627 5627 5627 5627 5628 5629 5630 5631 5631 5633 5636 5640 5643 5645 5647 5650 5652 5654 5657 5660 5663 5665 5668 5671 5674 5676 5678 5679 5681 5684 5687 5688 5689 5690 5693 5694